一网星座-0158星 (ONEWEB-0158 )

导读

ONEWEB-0158是英国OneWeb星座项目下的低轨通信卫星,于2021年3月25日发射入轨,属于一期组网卫星。卫星重约147.5公斤,运行在1200公里近地轨道,配备Ku和Ka波段天线,采用霍尔效应推进器,设计寿命5年。作为OneWeb全球低轨宽带星座的组成部分,它可为航空、海事、偏远地区提供低时延高速互联网接入,符合空间碎片减缓规范,寿命结束后将主动离轨。

基本信息
目录编号:
48054
目录名称:
ONEWEB-0158
国际标识:
2021-025N
轨道中心:
EARTH
卫星名称:
一网星座-0158星
卫星全名:
一网星座-0158星 (ONEWEB-0158 )
卫星状态:
在轨 (已飞行2000 天)
发射日期:
2021-03-25 UTC
国别 :
英国 (GB)
星等 :
--
该卫星已列入 空间交会检测服务 Space Conjunction Data Service (SCDS) ,当前飞行风险评估等级: 无高风险
轨道信息
数据来源 国际轨道数据 AOE轨道数据
星历时间 2026-09-15T10:15:27+0800
20小时前
查看轨道信息
2026-09-15T00:00:00+0800
1天前
查看轨道信息
半长轴 7587.897km 7587.894km
偏心率 0.0002129 0.0002067
轨道倾角 87.893° 87.894°
近地点辐角 89.538° 88.112°
升交点赤经 302.336° 302.420°
平近点角 270.599° 52.237°
近地点 1208.144km 1208.188km
远地点 1211.376km 1211.326km
周期 109.633分钟 109.633分钟
每日圈数 13.134715 13.134724
详细信息
平衡模式:
三轴稳定
覆盖范围:
全球
运营商:
一网卫星公司
运营商所在国:
英国
制造商(研发单位):
一网卫星公司
制造商所在国:
英国
使用方式:
暂无
卫星简介
OneWeb卫星网络由648颗重约125公斤的微型卫星组成,运行在1200公里的轨道上。 每颗卫星都能够提供至少每秒8千兆位的吞吐量,以使用其高吞吐量的Ku频段有效载荷为家庭和移动平台提供互联网接入。该卫星仍在工作。
2D轨道图
3D轨道图
轨道高度分析图
轨道倾角分析图
轨道综合分析图
查看轨道综合分析图
与全量物体交会距离演化趋势 订阅飞行安全评估服务
与全量物体交会风险概率演化趋势 订阅飞行安全评估服务